Regional Weather Roundup
Issued by NWS

Home | Current Version | Previous Version | Text Only | Print | Product List | Glossary On
Versions: 1 2 3 4 5 6 7 8 9 10 11 12 13 14 15 16 17 18 19 20 21 22 23 24 25 26 27 28 29 30 31 32 33 34 35 36 37 38 39 40 41 42 43 44 45 46 47 48 49 50
314
ASUS45 KREV 101810
RWRNV
NEVADA REGIONAL WEATHER ROUNDUP
NATIONAL WEATHER SERVICE RENO NV
1000 AM PST SAT DEC 10 2016

NOTE: "FAIR" INDICATES FEW OR NO CLOUDS BELOW 12,000 FEET WITH NO
SIGNIFICANT WEATHER AND/OR OBSTRUCTIONS TO VISIBILITY.

NVZ001-003-004-101900-
WESTERN NEVADA

CITY           SKY/WX    TMP DP  RH WIND       PRES   REMARKS
RENO           CLOUDY    46  40  79 S23G30    30.02R
6HR MIN TEMP:  46; 6HR MAX TEMP:  51; 6HR PCP:  0.15;

CARSON CITY    LGT RAIN  45  41  87 E5        30.07S
MINDEN         CLOUDY    46  39  76 S14G20    30.07S
PYRAMID LAKE     N/A     50 N/A N/A S18         N/A
FALLON         CLOUDY    58  34  40 SW10      29.99R
6HR MIN TEMP:  47; 6HR MAX TEMP:  58;

LOVELOCK       CLOUDY    52  40  63 SW12      29.97R
6HR MIN TEMP:  41; 6HR MAX TEMP:  52; 6HR PCP: TRACE;

HAWTHORNE        N/A    N/A N/A N/A MISG        N/A
$$

NVZ002-CAZ072-073-101900-
NORTHERN AND CENTRAL SIERRA

CITY           SKY/WX    TMP DP  RH WIND       PRES   REMARKS
S. LAKE TAHOE  RAIN      38  35  89 S14G20    30.10F FOG
6HR MIN TEMP:  38; 6HR MAX TEMP:  44; 6HR PCP:  0.75;

TRUCKEE        HVY RAIN  39  37  93 S13       30.07S
SQUAW VLY 8000   N/A     34  34 100 SW8         N/A
SUSANVILLE     LGT RAIN  48  48 100 CALM      29.95R
MAMMOTH LAKES  FAIR      51  31  46 S18G36    30.14R
6HR MIN TEMP:  47; 6HR MAX TEMP:  53;

BRIDGEPORT     LGT RAIN  42  34  73 W22G31    30.09R
$$

NVZ030-031-036-101900-
NORTHERN NEVADA

CITY           SKY/WX    TMP DP  RH WIND       PRES   REMARKS
ELKO           LGT RAIN  40  38  93 CALM      29.95S
6HR MIN TEMP:  36; 6HR MAX TEMP:  40; 6HR PCP:  0.48;

WINNEMUCCA     LGT RAIN  48  44  86 SW13G25   29.93R
6HR MIN TEMP:  40; 6HR MAX TEMP:  49; 6HR PCP:  0.14;

WENDOVER       CLOUDY    37  27  65 E6        29.93S
$$

NVZ035-037-101900-
CENTRAL NEVADA

CITY           SKY/WX    TMP DP  RH WIND       PRES   REMARKS
ELY            CLOUDY    39  29  67 CALM      30.04S
6HR MIN TEMP:  33; 6HR MAX TEMP:  41;

EUREKA           N/A     46  29  51 S12       30.00R
6HR MIN TEMP:  31; 6HR MAX TEMP:  50;

$$

NVZ013-014-101900-
SOUTH CENTRAL NEVADA

CITY           SKY/WX    TMP DP  RH WIND       PRES   REMARKS
TONOPAH        CLOUDY    41  35  79 E3        30.13R
6HR MIN TEMP:  31; 6HR MAX TEMP:  41;

$$

NVZ017-020-022-101900-
SOUTHERN NEVADA

CITY           SKY/WX    TMP DP  RH WIND       PRES   REMARKS
LAS VEGAS      MOSUNNY   52  18  26 N3        30.14S
6HR MIN TEMP:  40; 6HR MAX TEMP:  52;

N. LAS VEGAS   MOSUNNY   52  20  28 CALM      30.15R
6HR MIN TEMP:  37; 6HR MAX TEMP:  53;

NELLIS AFB     MOSUNNY   48  19  31 CALM      30.15R
6HR MIN TEMP:  33; 6HR MAX TEMP:  48;

HENDERSON      SUNNY     52  18  26 N6        30.16S
6HR MIN TEMP:  37; 6HR MAX TEMP:  52;

MERCURY        NOT AVBL
$$




USA.gov is the U.S. government's official web portal to all federal, state and local government web resources and services.